User: anonymous   Login
Location: Chervonnoye
(48.6000°N, 34.4000°E)
Time: 20:11:09
(UTC+00:00)
Language:

Cosmos 1939 Rocket - Orbit

View from above orbital plane
View from above orbital plane
View from above satellite
View from above satellite

Ground track
Ground track

The orbit data is extracted from the following two-line orbital elements,

1 19046U 88032B   21060.54666509 -.00000400  00000-0 -24994-4 0  9999
2 19046  97.3921  76.0255 0039043  52.1432 308.3316 15.02863940775577
Epoch (UTC): 01 March 2021 13:07:11
Eccentricity: 0.0039043
inclination: 97.3921°
perigee height: 531 km
apogee height: 585 km
right ascension of ascending node: 76.0255°
argument of perigee: 52.1432°
revolutions per day: 15.02863940
mean anomaly at epoch: 308.3316°
orbit number at epoch: 77557

The dashed part of the orbit path shows where the satellite is in the earth's shadow,  

DLR